User: anonymous   Login
Location: Trois-Rivi�res
(46.3500°N, 72.5500°W)
Time: 03:40:23
(UTC-04:00)
Language:

Cosmos 1975 - Orbit

View from above orbital plane
View from above orbital plane
View from above satellite
View from above satellite

Ground track
Ground track

The orbit data is extracted from the following two-line orbital elements,

1 19573U 88093A   14298.72444640  .00006347  00000-0  49376-3 0  3512
2 19573 082.5240 198.0844 0015210 348.8360 011.2524 15.01026773414773
Epoch (UTC): 25 October 2014 17:23:12
Eccentricity: 0.0015210
inclination: 82.5240°
perigee height: 553 km
apogee height: 574 km
right ascension of ascending node: 198.0844°
argument of perigee: 348.8360°
revolutions per day: 15.01026773
mean anomaly at epoch: 11.2524°
orbit number at epoch: 41477

The dashed part of the orbit path shows where the satellite is in the earth's shadow,  

DLR